Location: Praha
(50.0830°N, 14.4670°E)
Time: 17:52:33
(UTC+02:00)

ISS - Pass Details

Date: 14 July 2021
Orbit: 419 x 421 km, 51.6° (Epoch: 02 August)

Event Time Altitude Azimuth Distance (km) Brightness Sun altitude
Rises 00:30:22 0° 259° (WSW) 2,366 0.0 -17.8°
Reaches altitude 10° 00:32:27 10° 260° (W) 1,502 -1.0 -17.8°
Maximum altitude 00:35:50 78° 348° (NNW) 434 -3.7 -17.9°
Drops below altitude 10° 00:39:13 10° 75° (ENE) 1,505 -0.9 -18.0°
Sets 00:41:19 0° 77° (ENE) 2,370 0.2 -18.0°
